Back to catalog

STARLINK-5485

AliveCommunicationsVLEO
NORAD 57261·PAYLOAD·🇺🇸 United States

Launched Jul 7, 2023 from Vandenberg Space Force Base

Loading…

Next Passes (next 24 hours)

TLE

FreshSource: CelesTrak SupGP

Epoch: Sep 14, 2026, 14:56 UTC

1 57261C 23094AV  26257.62270833 -.00018071  00000+0 -65468-3 0  2579
2 57261  43.0011  43.6403 0001337 265.8829  10.2580 15.27580316    11

Track STARLINK-5485 in real time with AllMySat

Download on the App Store